This demonstration page uses our WeatherBlox Daily Observations layout. Learn more.

39.08367, -84.50855

Hourly Observations for October 24, 2019

Temp ( °F °C ) Dew Point ( °F °C ) Humidity (%) Winds ( mph kmh ) Pressure ( in mb ) Visibility ( mi km ) Precip ( " mm )
12:53 am 00:53 Clear 50 10 36 2.2 59 59 SW 3 6 30.16 1021 10 16.0934 0 0
1:53 am 01:53 Clear 44 6.7 38 3.3 79 79 Calm 30.19 1022 10 16.0934 0 0
2:53 am 02:53 Clear 39 3.9 36 2.2 89 89 Calm 30.2 1023 10 16.0934 0 0
3:53 am 03:53 Clear 41 5 38 3.3 89 89 Calm 30.19 1023 10 16.0934 0 0
4:53 am 04:53 Clear 40 4.4 38 3.3 93 93 Calm 30.2 1023 10 16.0934 0 0
5:53 am 05:53 Clear 39 3.9 37 2.8 93 93 Calm 30.22 1023 10 16.0934 0 0
6:53 am 06:53 Clear 38 3.3 37 2.8 97 97 Calm 30.23 1024 10 16.0934 0 0
7:53 am 07:53 Clear 38 3.3 37 2.8 97 97 Calm 30.24 1024 10 16.0934 0 0
8:53 am 08:53 Sunny 43 6.1 40 4.4 89 89 Calm 30.25 1025 10 16.0934 0 0
9:53 am 09:53 Sunny 52 11.1 40 4.4 64 64 SSW 5 7 30.27 1025 10 16.0934 0 0
10:53 am 10:53 Sunny 58 14.4 39 3.9 50 50 S 5 7 30.27 1025 10 16.0934 0 0
11:53 am 11:53 Sunny 64 17.8 38 3.3 38 38 SW 8 13 30.26 1025 10 16.0934 0 0
12:53 pm 12:53 Sunny 67 19.4 40 4.4 37 37 SSW 8 13 30.25 1025 10 16.0934 0 0
1:53 pm 13:53 Sunny 69 20.6 41 5 36 36 VRB 6 9 30.23 1024 10 16.0934 0 0
2:53 pm 14:53 Sunny 70 21.1 41 5 35 35 VRB 6 9 30.21 1023 10 16.0934 0 0
3:53 pm 15:53 Mostly Sunny 71 21.7 41 5 34 34 VRB 3 6 30.2 1023 10 16.0934 0 0
4:53 pm 16:53 Partly Cloudy 69 20.6 42 5.6 38 38 VRB 5 7 30.21 1023 10 16.0934 0 0
5:53 pm 17:53 Mostly Sunny 66 18.9 47 8.3 50 50 Calm 30.21 1023 10 16.0934 0 0
6:53 pm 18:53 Mostly Cloudy 64 17.8 43 6.1 46 46 NNW 8 13 30.22 1023 10 16.0934 0 0
7:53 pm 19:53 Clear 59 15 44 6.7 58 58 NNE 7 11 30.25 1024 10 16.0934 0 0
8:53 pm 20:53 Clear 54 12.2 46 7.8 75 75 Calm 30.27 1025 10 16.0934 0 0
9:53 pm 21:53 Clear 51 10.6 46 7.8 83 83 Calm 30.28 1025 10 16.0934 0 0
10:53 pm 22:53 Clear 49 9.4 45 7.2 86 86 Calm 30.29 1026 10 16.0934 0 0
11:53 pm 23:53 Clear 51 10.6 47 8.3 86 86 Calm 30.29 1026 10 16.0934 0 0

Powered by AerisWeather